Wind_Speed
32 32 33 32 32 30 28 27 24 21 20 19 17 13 10 8 7 6 6 8 11 15 18 15 20 20 12 13 11 13 11 11 10 12 14 14 13 9 12 6 8 8 10 12 11 11 7 4 4 2 5 7 11 13
34 31 32 31 29 27 28 28 23 20 19 18 17 14 11 10 9 8 7 7 9 11 15 13 18 20 21 21 18 10 8 8 8 9 12 10 10 10 10 12 10 7 8 4 5 2 2 6 7 8 11 10 12 15
33 31 31 28 27 26 26 26 25 22 19 17 16 16 13 11 10 8 6 6 7 7 6 6 8 19 18 19 21 11 8 14 13 17 5 9 9 8 8 11 6 9 8 6 4 6 4 6 6 6 8 13 16 19
34 29 28 27 27 26 25 25 25 23 16 14 14 15 14 11 9 7 5 4 4 3 6 7 12 10 13 15 16 19 15 13 8 9 8 8 8 8 6 5 10 5 3 6 6 7 4 3 5 11 16 17 17 18
34 26 26 26 27 25 24 23 23 22 16 14 14 14 13 12 9 7 4 4 4 9 12 3 4 5 6 10 11 13 9 6 4 3 6 8 9 5 7 6 9 7 6 4 2 4 11 13 14 15 13 14 18 20
28 25 25 25 25 23 22 22 22 22 18 14 13 13 13 12 9 6 2 3 5 6 8 3 7 7 6 5 6 7 5 6 6 6 7 8 7 7 6 7 9 7 5 8 6 11 11 10 10 15 14 14 17 20
29 28 24 24 23 22 22 22 21 21 17 15 14 12 13 10 8 5 3 5 5 6 10 5 2 6 6 5 5 4 4 4 6 6 5 6 5 8 7 7 10 8 12 11 10 10 8 8 10 10 15 16 19 22
28 28 24 24 23 21 20 19 19 19 16 15 12 11 11 10 7 5 5 6 5 7 11 7 3 2 7 6 6 7 4 4 5 4 6 5 7 5 6 8 10 11 9 7 9 10 8 9 12 13 14 17 18 22
27 27 24 25 22 18 17 17 17 16 15 12 11 11 11 9 6 8 6 5 4 9 7 8 9 6 5 8 9 4 7 7 8 5 8 8 8 8 8 10 7 11 10 8 8 8 8 8 10 11 13 15 19 23
28 26 25 24 20 16 15 15 15 15 13 12 11 12 13 15 6 3 3 2 1 5 6 4 13 11 7 9 10 8 5 7 4 8 8 10 12 15 16 15 12 11 8 7 8 7 11 7 10 10 12 17 22 24
28 25 23 22 18 15 14 14 15 13 12 12 11 7 8 9 4 4 1 3 1 3 6 11 15 15 15 12 6 9 3 2 4 7 4 6 11 14 15 12 10 5 6 8 9 8 8 10 10 10 15 19 22 23
23 24 22 19 15 14 13 13 14 14 12 10 9 8 5 6 3 2 2 2 1 5 6 7 10 17 13 9 4 3 1 1 3 7 5 8 11 11 9 11 7 6 8 10 11 10 10 9 11 13 17 20 22 23
22 22 17 14 13 12 12 13 13 11 10 9 7 4 2 1 3 2 2 2 2 7 4 2 7 8 5 5 4 3 5 6 3 6 9 8 7 9 9 9 10 10 11 12 13 13 12 11 15 16 19 19 20 21
22 18 14 13 12 12 12 13 12 10 9 7 3 3 1 1 1 6 2 4 2 7 6 12 4 3 1 5 4 3 4 5 5 9 8 6 7 6 5 8 11 11 13 14 15 12 14 14 16 15 16 16 19 19
18 15 15 14 13 13 13 11 10 9 7 5 2 1 2 3 3 4 1 2 3 2 3 4 2 4 7 5 5 5 4 6 4 4 2 5 6 7 7 10 10 13 15 18 17 14 12 13 15 14 12 11 17 18
15 14 15 14 13 11 11 10 9 9 8 5 5 2 4 4 7 5 1 3 3 3 7 8 6 4 4 4 4 4 4 3 2 4 5 3 9 13 15 16 17 15 16 15 14 14 14 14 14 12 11 13 14 18
14 14 12 11 11 11 10 9 8 7 4 2 2 6 6 6 6 5 6 8 4 7 8 4 5 4 3 5 5 3 4 4 2 5 5 13 21 20 15 17 16 13 12 13 13 14 14 13 14 14 13 14 11 14
14 11 9 9 9 8 9 9 7 5 4 4 4 4 6 8 8 7 10 6 6 10 5 7 6 7 6 5 1 3 5 6 9 10 11 17 21 18 13 15 12 11 13 15 14 12 12 13 16 18 16 5 6 10
10 9 8 7 8 9 9 7 4 2 4 8 8 7 8 8 9 10 11 10 7 8 10 9 7 6 8 6 10 11 11 16 11 11 11 18 20 16 13 14 12 12 15 12 9 8 9 9 8 4 9 5 4 7
10 9 8 7 8 9 8 5 7 4 3 7 5 4 6 8 8 8 7 7 9 10 10 4 6 4 8 8 12 14 14 15 15 14 14 16 16 19 17 17 15 14 13 12 7 10 3 2 1 8 3 3 2 5
9 9 9 9 10 10 8 6 4 5 6 4 5 5 4 4 3 2 5 3 7 5 6 10 7 8 12 14 15 17 16 14 15 16 17 16 17 17 17 15 14 11 14 8 15 12 5 12 11 8 6 4 6 8
9 9 9 10 11 10 9 7 6 6 4 3 5 3 5 2 3 5 4 8 12 3 9 11 13 13 11 10 8 9 10 11 13 13 10 12 14 14 14 13 13 15 7 17 19 13 14 10 11 3 3 5 9 15
9 9 10 11 9 4 5 4 2 1 4 3 3 4 4 3 6 4 5 5 5 6 9 10 10 12 12 10 11 12 12 17 16 11 10 11 13 12 13 17 9 12 15 11 9 9 8 9 7 7 9 7 4 6
10 11 9 4 2 1 3 1 3 3 3 4 5 4 5 5 4 6 7 6 6 9 9 9 8 8 10 13 14 14 13 13 9 11 11 12 13 4 10 14 17 15 15 11 7 10 8 7 3 6 2 3 6 8
9 5 3 3 2 1 1 1 3 3 3 3 4 4 4 4 5 6 7 10 10 9 9 8 6 6 8 14 18 20 19 15 9 6 2 9 20 21 17 13 12 13 15 14 12 11 11 7 5 3 1 5 8 5
3 3 3 3 2 2 2 3 5 5 5 4 4 5 5 6 5 5 7 9 8 7 7 7 6 7 14 18 12 8 5 3 8 8 8 18 18 18 16 13 8 5 5 3 2 1 2 2 4 3 7 13 12 7
4 3 4 5 5 2 3 4 5 6 6 6 5 5 5 4 4 5 6 6 1 3 6 7 5 9 11 16 12 11 8 13 12 16 21 14 18 18 14 6 0 3 1 5 3 3 1 1 1 2 4 6 8 9
6 5 4 2 4 5 7 4 4 3 3 4 3 3 3 3 6 6 6 7 5 1 6 9 6 5 9 18 16 14 15 19 20 17 13 9 7 9 8 5 7 4 2 1 4 3 2 2 1 3 4 6 8 10
3 3 1 2 2 3 3 2 3 5 8 10 8 10 9 9 14 8 6 6 5 4 4 11 12 4 8 11 12 8 7 12 10 8 8 4 4 6 9 6 5 6 7 5 4 4 5 6 5 6 6 6 7 7
3 3 3 2 2 4 4 6 7 8 11 12 14 12 14 16 17 20 22 17 13 9 7 8 8 4 5 6 8 12 9 6 9 6 8 2 5 7 3 3 5 4 4 5 6 9 6 5 5 6 5 6 6 5
5 5 4 2 2 5 3 4 8 8 8 9 7 6 6 5 5 4 13 14 11 7 7 6 3 3 2 3 3 6 5 4 6 3 7 7 3 2 2 5 5 5 5 5 4 4 3 4 4 5 7 7 8 7
5 5 2 1 4 4 4 4 2 3 7 6 7 7 7 12 13 9 4 5 12 11 8 10 3 4 1 4 4 3 1 2 2 3 3 2 4 3 4 4 5 5 6 6 5 6 7 6 5 6 6 7 9 10
5 5 3 0 3 5 4 4 3 2 3 6 7 8 8 7 7 6 10 18 11 7 8 9 8 8 6 7 5 5 4 3 3 3 4 5 6 5 4 3 6 7 6 5 5 6 7 8 7 7 7 9 9 10
Wind_Direction
339 340 341 342 343 345 347 348 349 352 355 355 356 353 343 330 316 299 272 249 235 227 234 229 221 212 234 229 216 239 254 250 229 234 238 242 240 253 236 239 213 225 240 242 241 270 229 205 318 236 248 295 292 293
338 337 339 340 344 345 347 350 350 347 349 350 352 349 342 331 321 307 287 265 250 239 235 246 236 233 230 222 193 247 225 191 210 224 233 236 232 242 234 232 219 240 225 271 215 57 257 285 254 278 284 293 296 296
338 337 338 338 341 342 341 346 346 344 340 343 346 351 348 339 327 312 291 273 265 252 260 255 268 234 231 230 229 207 245 221 239 209 204 220 229 223 227 238 214 234 230 199 263 219 253 281 308 301 293 297 302 301
332 334 337 337 338 338 340 339 343 345 345 346 348 349 349 346 339 323 298 273 257 209 133 265 265 236 228 231 222 212 220 245 229 204 227 236 237 244 234 220 200 206 194 214 239 247 301 188 298 292 297 302 307 308
329 328 333 334 335 337 339 342 345 347 341 341 346 347 348 349 346 335 308 275 232 198 174 210 257 223 229 233 226 219 209 205 205 228 221 225 226 218 219 213 225 229 208 221 212 249 255 278 295 317 310 307 306 306
334 330 331 334 334 336 337 339 342 343 342 333 335 339 344 345 348 343 336 296 243 219 203 127 236 239 219 231 205 181 181 190 170 183 214 221 223 180 215 213 200 196 237 242 243 264 275 306 308 311 322 317 309 317
324 330 328 330 331 333 335 336 339 341 339 337 335 338 341 339 342 348 254 290 246 210 190 176 252 240 222 173 170 176 175 190 167 217 196 213 254 185 223 235 192 222 258 268 275 282 305 296 302 308 314 324 317 323
319 324 322 324 324 327 333 338 341 344 341 338 337 340 336 332 325 301 301 293 250 205 187 184 210 258 206 184 214 209 205 241 221 197 228 213 246 225 229 203 220 265 260 280 282 296 315 299 314 316 324 327 325 321
318 321 319 320 320 319 325 332 339 343 348 352 353 348 347 348 352 308 305 297 243 204 187 184 201 208 193 199 215 228 202 221 226 234 237 228 241 232 219 206 228 250 272 277 300 307 288 314 315 326 328 331 335 332
316 317 317 318 317 315 321 324 331 336 334 337 338 344 344 339 337 338 351 324 327 217 199 188 208 242 186 196 218 218 207 240 238 217 240 251 232 235 244 248 255 277 268 289 309 275 275 291 302 327 332 335 334 334
312 313 318 314 312 313 317 321 327 330 331 330 331 320 316 341 28 39 355 323 319 269 235 230 217 217 203 214 239 179 184 209 243 246 227 245 240 245 239 238 262 274 287 311 310 301 299 290 311 324 332 337 335 334
307 313 315 310 311 315 318 321 326 327 329 325 324 327 330 11 26 298 333 299 262 276 261 224 190 225 153 187 226 110 193 215 254 272 281 254 233 223 216 227 248 263 295 317 319 317 304 295 298 317 325 335 337 333
312 313 316 306 308 311 316 322 328 331 330 326 323 342 335 245 13 292 292 352 304 314 291 243 201 182 164 159 228 204 217 231 248 247 245 257 218 180 207 231 261 280 297 310 314 309 304 291 294 310 314 324 335 336
312 311 308 307 306 307 313 318 321 326 333 337 311 328 231 248 289 290 267 352 124 70 54 39 122 123 309 186 188 239 242 250 237 240 244 205 187 200 219 256 267 276 286 301 307 309 293 286 287 300 318 326 334 337
307 305 305 304 302 304 308 313 314 315 311 315 268 264 256 286 286 289 76 37 48 5 299 335 248 236 242 225 224 217 221 227 240 270 270 180 177 238 272 290 298 290 294 298 299 297 290 281 281 290 295 325 331 341
304 308 303 301 300 301 304 309 309 306 294 264 226 269 271 256 244 233 171 332 305 302 280 243 281 250 245 249 237 234 254 280 345 308 305 311 282 284 303 307 304 295 293 291 291 293 288 279 272 276 278 299 329 333
306 308 307 306 304 303 308 310 312 304 251 210 328 258 252 257 270 277 281 273 294 275 285 297 266 236 247 245 234 241 289 282 251 298 278 266 278 293 298 306 305 292 294 294 291 290 292 271 255 260 269 282 317 331
307 304 305 308 309 310 318 315 303 274 265 275 263 262 260 251 259 266 259 264 265 273 252 261 260 268 260 272 211 227 251 262 275 280 280 286 295 303 296 307 301 301 298 290 290 293 290 273 257 252 258 282 8 328
298 300 308 311 311 321 330 317 300 288 271 264 266 278 280 273 276 265 253 265 270 265 271 262 256 248 237 260 270 264 288 280 284 282 299 292 298 305 298 303 296 293 304 294 283 264 272 255 249 125 60 31 303 328
290 294 300 304 314 329 333 294 303 289 249 283 293 294 278 272 263 265 263 250 256 269 289 269 262 286 263 266 268 272 276 279 277 276 271 284 277 285 295 299 297 286 312 296 258 218 202 30 250 76 36 136 38 12
292 288 293 296 303 310 301 288 281 262 260 273 290 285 287 271 265 299 253 217 251 251 253 246 261 276 278 284 294 292 290 294 296 285 272 265 263 275 288 294 302 292 304 224 160 132 75 83 42 40 14 359 8 20
303 300 298 300 306 304 285 270 239 262 265 274 274 241 265 253 297 287 320 245 242 240 286 277 275 279 287 298 305 307 290 293 302 300 290 285 279 274 277 285 292 307 248 186 166 142 135 128 103 74 5 2 9 342
301 301 304 305 298 282 277 260 215 246 245 254 295 257 264 264 286 328 267 312 289 281 288 300 297 298 284 279 287 302 300 303 301 299 293 303 298 281 279 285 255 156 142 140 108 121 94 74 42 14 18 27 356 344
295 299 298 281 254 269 291 236 261 274 264 233 240 259 274 272 274 257 261 260 284 297 311 324 322 326 318 312 312 311 311 320 292 292 303 322 294 239 112 115 122 143 140 162 223 145 121 105 51 57 13 339 336 343
297 287 259 259 259 274 195 246 258 265 237 268 293 285 272 270 276 253 265 265 286 294 328 338 358 325 314 306 301 296 288 280 271 282 298 92 101 95 93 111 110 80 60 46 40 34 31 25 21 7 265 274 307 3
266 251 218 194 235 203 212 252 259 278 289 287 257 266 288 281 273 265 263 269 287 312 343 349 339 343 338 340 344 6 1 185 156 164 132 122 100 91 79 60 44 66 66 85 106 183 189 244 282 331 349 340 335 2
232 252 251 245 249 247 259 246 256 257 256 255 262 268 266 246 249 241 249 286 87 10 351 349 4 353 5 32 68 80 102 109 130 128 121 115 109 99 75 66 279 53 45 74 53 104 90 26 337 277 282 312 327 340
217 206 220 245 243 236 254 269 270 264 259 253 239 235 246 251 266 276 264 221 283 49 300 338 353 6 9 18 22 59 99 109 110 114 113 104 101 97 97 34 17 9 28 54 99 122 151 222 316 323 329 327 330 340
178 191 208 233 240 282 270 246 250 256 270 261 259 254 254 253 256 264 240 213 253 280 291 313 334 38 15 353 16 16 113 126 109 119 120 96 47 47 35 35 22 18 6 12 5 353 341 331 329 327 341 350 349 351
180 160 142 95 14 331 284 259 261 272 274 304 279 271 269 272 262 245 239 253 257 246 253 280 295 149 48 56 36 358 351 177 158 148 158 171 96 77 66 358 21 16 17 22 2 355 346 339 352 3 359 354 352 15
177 162 155 146 328 342 324 290 292 289 328 338 1 5 354 359 24 261 238 236 234 184 207 203 177 67 99 194 57 330 316 68 167 157 179 134 84 222 285 360 4 350 349 339 334 327 349 0 346 350 339 344 344 351
173 178 190 283 356 340 305 321 345 359 11 49 45 41 61 47 32 27 56 168 180 168 179 169 161 302 239 154 250 282 298 282 215 196 146 116 228 276 338 356 346 328 327 331 335 324 317 322 320 319 329 330 338 341
165 170 175 120 332 341 350 318 348 0 26 48 45 49 81 94 69 55 89 109 114 150 171 194 207 220 222 211 253 292 289 293 296 286 279 276 276 282 298 301 307 311 316 315 313 319 322 318 325 324 330 332 336 340
Height
3175 3170 3164 3158 3152 3147 3141 3136 3131 3127 3123 3119 3116 3113 3111 3109 3108 3107 3107 3107 3109 3109 3109 3110 3112 3115 3118 3121 3125 3122 3126 3125 3128 3129 3130 3129 3129 3130 3131 3132 3133 3135 3135 3132 3133 3133 3133 3134 3137 3141 3138 3137 3137 3135
3172 3167 3161 3156 3150 3145 3140 3135 3130 3126 3122 3119 3115 3112 3110 3108 3106 3105 3105 3104 3105 3106 3106 3106 3108 3109 3112 3114 3117 3119 3123 3123 3125 3126 3127 3127 3127 3128 3129 3130 3129 3135 3134 3132 3135 3134 3131 3131 3133 3133 3133 3132 3131 3129
3169 3164 3159 3153 3149 3144 3139 3134 3129 3125 3121 3118 3115 3111 3108 3106 3104 3103 3103 3102 3102 3103 3104 3105 3105 3105 3107 3110 3112 3117 3119 3117 3120 3120 3124 3125 3126 3126 3126 3127 3128 3127 3127 3131 3132 3132 3132 3131 3131 3131 3130 3127 3124 3123
3166 3160 3156 3151 3146 3141 3137 3132 3127 3123 3119 3116 3114 3111 3108 3105 3103 3101 3100 3100 3101 3102 3104 3106 3101 3102 3104 3105 3108 3110 3111 3113 3116 3118 3122 3123 3125 3123 3125 3123 3127 3125 3126 3128 3130 3128 3127 3128 3126 3124 3122 3120 3119 3118
3162 3157 3153 3149 3144 3139 3135 3130 3126 3121 3118 3115 3112 3110 3107 3104 3102 3100 3099 3099 3099 3103 3103 3106 3102 3102 3103 3103 3105 3106 3110 3113 3116 3118 3119 3121 3120 3121 3122 3123 3124 3123 3125 3127 3125 3122 3123 3122 3120 3119 3118 3117 3115 3112
3158 3154 3150 3146 3141 3137 3133 3129 3124 3120 3116 3113 3111 3108 3106 3104 3101 3100 3100 3099 3099 3099 3102 3105 3103 3102 3102 3103 3104 3105 3109 3111 3114 3117 3118 3117 3116 3118 3119 3120 3119 3119 3119 3119 3122 3119 3119 3119 3120 3116 3114 3113 3109 3105
3154 3150 3146 3142 3138 3135 3130 3126 3122 3118 3114 3111 3109 3107 3104 3102 3100 3100 3100 3099 3098 3098 3100 3102 3103 3101 3102 3103 3106 3108 3108 3111 3113 3115 3115 3116 3115 3114 3116 3117 3115 3115 3116 3116 3116 3116 3116 3117 3115 3112 3109 3107 3103 3100
3150 3146 3142 3139 3135 3131 3128 3124 3121 3116 3113 3110 3107 3105 3103 3101 3099 3098 3098 3097 3096 3098 3099 3101 3102 3102 3102 3106 3108 3108 3110 3109 3110 3112 3112 3113 3113 3113 3114 3111 3111 3112 3113 3113 3113 3112 3113 3114 3111 3108 3106 3103 3099 3094
3145 3141 3138 3135 3131 3128 3125 3122 3119 3115 3112 3109 3106 3104 3101 3100 3100 3097 3096 3095 3095 3098 3097 3098 3099 3099 3102 3103 3104 3106 3107 3108 3108 3109 3111 3110 3111 3110 3109 3109 3109 3109 3111 3111 3110 3109 3109 3109 3107 3105 3102 3098 3094 3089
3140 3137 3133 3130 3127 3124 3122 3119 3117 3113 3111 3108 3106 3103 3100 3100 3097 3097 3096 3095 3095 3096 3096 3098 3098 3099 3100 3101 3103 3104 3104 3106 3105 3106 3105 3106 3107 3104 3105 3106 3106 3107 3107 3107 3107 3109 3105 3104 3103 3101 3098 3094 3090 3085
3135 3132 3129 3125 3123 3120 3118 3116 3114 3111 3109 3106 3104 3103 3101 3099 3097 3097 3098 3098 3098 3097 3096 3095 3095 3095 3097 3097 3095 3099 3099 3102 3103 3103 3104 3102 3102 3100 3101 3102 3104 3104 3104 3104 3103 3102 3101 3101 3099 3097 3094 3091 3087 3082
3130 3127 3124 3121 3119 3117 3115 3113 3111 3109 3106 3105 3103 3100 3100 3099 3099 3100 3098 3098 3098 3096 3094 3093 3094 3095 3094 3097 3097 3098 3100 3101 3102 3101 3101 3098 3095 3096 3099 3100 3101 3102 3102 3101 3100 3098 3097 3097 3096 3093 3091 3088 3084 3079
3125 3122 3119 3117 3115 3114 3112 3110 3108 3106 3104 3102 3101 3100 3101 3102 3100 3100 3099 3097 3096 3094 3093 3092 3094 3095 3097 3098 3097 3100 3100 3100 3099 3099 3096 3093 3094 3095 3096 3098 3098 3099 3098 3098 3096 3095 3093 3093 3091 3089 3088 3085 3081 3077
3120 3117 3115 3114 3112 3110 3109 3107 3106 3104 3103 3102 3101 3101 3102 3101 3100 3098 3099 3097 3096 3095 3095 3095 3093 3097 3098 3098 3098 3099 3098 3097 3096 3094 3092 3091 3092 3095 3095 3095 3096 3095 3095 3094 3092 3092 3089 3088 3087 3086 3084 3082 3078 3075
3115 3113 3111 3110 3108 3107 3106 3104 3103 3102 3101 3101 3101 3101 3102 3102 3100 3098 3097 3098 3097 3097 3097 3098 3098 3099 3096 3096 3093 3096 3095 3094 3092 3090 3090 3091 3091 3092 3093 3093 3092 3092 3090 3089 3087 3087 3084 3084 3083 3082 3081 3080 3077 3072
3111 3110 3107 3106 3104 3103 3102 3101 3100 3099 3098 3098 3098 3099 3101 3101 3097 3096 3096 3097 3099 3097 3096 3096 3095 3095 3095 3095 3094 3093 3092 3091 3091 3089 3089 3088 3089 3089 3088 3088 3085 3085 3084 3083 3082 3080 3080 3079 3078 3078 3077 3076 3075 3070
3107 3106 3104 3102 3101 3100 3099 3097 3097 3096 3095 3096 3099 3097 3098 3098 3098 3096 3095 3095 3095 3096 3095 3095 3094 3092 3093 3092 3091 3091 3091 3091 3091 3091 3089 3088 3087 3086 3084 3082 3080 3080 3079 3078 3076 3076 3075 3074 3074 3073 3073 3073 3072 3069
3104 3102 3101 3099 3098 3097 3095 3094 3094 3094 3093 3096 3096 3096 3095 3095 3095 3096 3093 3094 3095 3092 3093 3093 3092 3091 3090 3089 3088 3089 3088 3089 3089 3088 3087 3083 3082 3081 3079 3078 3076 3075 3075 3073 3072 3071 3070 3069 3068 3069 3069 3069 3072 3068
3100 3099 3098 3097 3096 3095 3093 3092 3092 3093 3094 3093 3092 3092 3092 3091 3090 3089 3090 3091 3090 3091 3091 3089 3088 3087 3087 3088 3087 3086 3086 3084 3082 3082 3082 3078 3077 3076 3075 3074 3073 3071 3070 3070 3069 3068 3067 3066 3065 3065 3066 3070 3071 3066
3097 3097 3096 3095 3094 3092 3091 3091 3090 3089 3089 3089 3088 3089 3090 3089 3088 3087 3088 3089 3089 3087 3087 3086 3086 3086 3084 3083 3083 3082 3081 3079 3078 3077 3077 3077 3075 3073 3071 3070 3068 3068 3067 3065 3064 3065 3066 3065 3064 3064 3066 3066 3067 3066
3094 3094 3093 3092 3091 3090 3090 3088 3089 3089 3087 3088 3089 3088 3088 3088 3086 3086 3085 3086 3087 3087 3085 3083 3083 3083 3081 3079 3078 3075 3074 3073 3071 3069 3068 3069 3068 3067 3066 3064 3064 3063 3063 3062 3062 3064 3063 3063 3066 3069 3070 3068 3065 3063
3091 3090 3089 3089 3088 3086 3086 3085 3086 3085 3085 3087 3087 3086 3086 3086 3086 3085 3086 3085 3083 3083 3083 3081 3080 3078 3078 3075 3074 3072 3071 3069 3068 3066 3064 3063 3062 3062 3061 3060 3060 3059 3058 3059 3061 3063 3065 3066 3067 3071 3071 3069 3067 3063
3089 3088 3087 3086 3085 3084 3084 3083 3085 3085 3085 3085 3086 3085 3086 3085 3084 3085 3084 3083 3083 3081 3079 3077 3076 3074 3073 3072 3071 3069 3067 3066 3064 3062 3061 3059 3057 3056 3056 3054 3055 3058 3058 3059 3061 3064 3066 3068 3069 3069 3068 3069 3068 3067
3085 3084 3083 3082 3082 3083 3083 3083 3084 3084 3084 3084 3084 3084 3084 3083 3083 3083 3082 3080 3080 3079 3077 3075 3074 3072 3071 3069 3067 3064 3063 3062 3061 3060 3058 3055 3051 3052 3053 3053 3056 3058 3060 3063 3064 3065 3067 3067 3069 3067 3070 3068 3067 3064
3084 3083 3082 3081 3081 3082 3082 3082 3083 3083 3083 3083 3082 3082 3082 3082 3081 3080 3080 3078 3077 3077 3075 3073 3072 3072 3068 3065 3061 3059 3057 3058 3058 3058 3058 3057 3055 3056 3058 3059 3062 3063 3064 3065 3067 3067 3067 3069 3070 3069 3067 3065 3062 3062
3080 3080 3081 3080 3081 3081 3082 3082 3082 3081 3081 3081 3081 3080 3080 3079 3079 3078 3077 3076 3076 3076 3075 3073 3071 3070 3066 3060 3054 3052 3049 3050 3054 3057 3059 3059 3060 3062 3064 3066 3068 3069 3070 3071 3072 3072 3072 3071 3070 3068 3066 3062 3060 3059
3078 3079 3078 3078 3079 3079 3080 3080 3080 3080 3080 3079 3079 3078 3079 3078 3077 3076 3074 3075 3076 3076 3075 3073 3071 3069 3066 3062 3058 3054 3053 3054 3055 3059 3061 3063 3065 3066 3066 3071 3068 3067 3067 3068 3069 3070 3071 3070 3069 3068 3066 3063 3059 3055
3076 3076 3077 3078 3078 3079 3078 3078 3078 3078 3077 3076 3077 3076 3076 3076 3075 3073 3073 3074 3074 3075 3074 3073 3072 3071 3068 3065 3063 3062 3062 3062 3064 3065 3067 3067 3068 3068 3068 3070 3069 3068 3067 3066 3066 3067 3066 3065 3064 3062 3060 3058 3056 3053
3075 3075 3076 3076 3076 3076 3076 3077 3076 3076 3075 3074 3074 3073 3073 3072 3071 3069 3070 3070 3073 3074 3074 3072 3071 3072 3071 3068 3068 3068 3068 3067 3068 3068 3069 3070 3070 3070 3070 3071 3072 3070 3066 3065 3065 3063 3062 3061 3060 3059 3058 3056 3055 3053
3075 3075 3076 3076 3077 3076 3076 3075 3074 3074 3071 3069 3067 3066 3065 3064 3062 3063 3064 3066 3068 3071 3072 3072 3072 3073 3072 3072 3070 3070 3069 3067 3069 3070 3070 3071 3071 3072 3073 3073 3071 3070 3068 3067 3066 3062 3062 3060 3059 3058 3057 3056 3053 3053
3074 3075 3076 3076 3077 3075 3074 3073 3072 3071 3069 3067 3065 3063 3062 3060 3059 3058 3059 3060 3063 3066 3069 3071 3072 3072 3073 3071 3070 3072 3071 3071 3070 3071 3071 3072 3073 3074 3073 3071 3070 3068 3067 3066 3065 3063 3062 3062 3060 3058 3056 3054 3052 3051
3074 3075 3077 3077 3076 3075 3074 3073 3071 3070 3069 3067 3066 3064 3063 3062 3062 3060 3058 3058 3061 3065 3068 3071 3070 3070 3072 3073 3073 3071 3071 3070 3071 3071 3071 3073 3073 3071 3071 3071 3070 3068 3066 3065 3064 3063 3061 3059 3059 3057 3055 3054 3051 3049
3075 3075 3075 3075 3075 3074 3073 3072 3071 3071 3069 3068 3067 3066 3065 3065 3066 3065 3063 3063 3067 3068 3070 3070 3071 3070 3070 3071 3070 3070 3069 3069 3069 3069 3069 3069 3070 3069 3069 3069 3066 3065 3064 3063 3063 3062 3060 3058 3056 3054 3053 3051 3050 3048